Location: Jablonec nad Nisou
(50.7170°N, 15.1830°E)
Time: 08:13:24
(UTC+02:00)

ISS - Pass Details

Date: 30 March 2019
Orbit: 408 x 410 km, 51.6° (Epoch: 26 April)

Event Time Altitude Azimuth Distance (km) Brightness Sun altitude
Rises 19:13:13 0° 269° (W) 2,336 1.7 -7.8°
Reaches altitude 10° 19:15:19 10° 271° (W) 1,475 0.5 -8.2°
Maximum altitude 19:18:37 74° 357° (N) 431 -3.7 -8.7°
Enters shadow 19:21:46 11° 83° (E) 1,410 -1.6 -9.1°
